Regional Weather Roundup
Issued by NWS New Orleans/Baton Rouge, LA

Home | Current Version | Previous Version | Text Only | Print | Product List | Glossary On
Versions: 1 2 3 4 5 6 7 8 9 10 11 12 13 14 15 16 17 18 19 20 21 22 23 24 25 26 27 28 29 30 31 32 33 34 35 36 37 38 39 40 41 42 43 44 45 46 47 48 49 50
831
ASUS44 KLIX 310001
RWRLIX
NEW ORLEANS REGIONAL WEATHER ROUNDUP
NATIONAL WEATHER SERVICE NEW ORLEANS LA
700 PM CDT WED JUL 30 2014

NOTE: "FAIR" INDICATES FEW OR NO CLOUDS BELOW 12,000 FEET WITH NO
      SIGNIFICANT WEATHER AND/OR OBSTRUCTIONS TO VISIBILITY.
      SKY/WX - SKY CONDITION AND SIGNIFICANT WEATHER.
      TMP - AIR TEMPERATURE.     DP    - DEWPOINT TEMPERATURE.
      RH  - RELATIVE HUMIDITY.   PRES  - PRESSURE.
      HI  - HEAT INDEX.          WCI   - WIND CHILL INDEX.

*  THESE STATIONS ARE NOT NWS OR FAA STATIONS AND ARE NOT UNDER
   NWS QUALITY CONTROL.

LAZ038-040-048-061>063-065>067-069-310100-
SOUTHEAST LOUISIANA

CITY           SKY/WX    TMP DP  RH WIND       PRES   REMARKS
N.O. AUDUBON     N/A     87  62  42 MISG        N/A
6HR MIN TEMP:  87; 6HR MAX TEMP:  91;

N.O. INTL ARPT MOSUNNY   84  61  45 N7        30.00R
6HR MIN TEMP:  84; 6HR MAX TEMP:  87;

N.O. LAKEFRONT SUNNY     84  63  49 NW7       30.00S
6HR MIN TEMP:  82; 6HR MAX TEMP:  85;

N.O. DOWNTOWN*   N/A     84  57  39 N6        30.00S
6HR MIN TEMP:  84; 6HR MAX TEMP:  88;

SLIDELL        SUNNY     83  60  45 N6        30.00R
6HR MIN TEMP:  83; 6HR MAX TEMP:  87;

BATON ROUGE    SUNNY     85  62  46 N6        30.01R
6HR MIN TEMP:  84; 6HR MAX TEMP:  88;

BOOTHVILLE     CLEAR     82  64  54 E6        30.00S
6HR MIN TEMP:  82; 6HR MAX TEMP:  84;

BELLE CHASSE   PTSUNNY   84  60  44 NE5       29.99S
6HR MIN TEMP:  84; 6HR MAX TEMP:  89;

BOGALUSA*        N/A     83  62  48 N3        30.02S
6HR MIN TEMP:  83; 6HR MAX TEMP:  87;

GALLIANO*      NOT AVBL
NEW ROADS*       N/A     82  65  56 N7        30.01S
6HR MIN TEMP:  82; 6HR MAX TEMP:  86;

GONZALES*        N/A     84  64  51 CALM      29.99S
6HR MIN TEMP:  83; 6HR MAX TEMP:  87;

HAMMOND*       SUNNY     84  57  39 CALM      30.02S
HOUMA*         MOSUNNY   91  63  38 N5        29.99
PORT FOURCHON* MOCLDY    84  70  61 E7        30.01R

$$

MSZ070-080>082-310100-
SOUTHERN MISSISSIPPI

CITY           SKY/WX    TMP DP  RH WIND       PRES   REMARKS
MCCOMB         SUNNY     83  59  44 VRB5      30.03S
6HR MIN TEMP:  81; 6HR MAX TEMP:  85;

GULFPORT       CLEAR     88  56  33 N7        29.99R
6HR MIN TEMP:  87; 6HR MAX TEMP:  91;

BILOXI         CLEAR     82  65  56 CALM      29.99S
6HR MIN TEMP:  82; 6HR MAX TEMP:  87;

PASCAGOULA     CLEAR     82  61  48 N5        29.99S
6HR MIN TEMP:  82; 6HR MAX TEMP:  87;

STENNIS ARPT*  SUNNY    N/A N/A N/A NE5       30.00R

$$

COASTAL OBSERVATIONS
LAKE AND NEARSHORE STATIONS

STATION/POSITION TIME  TEMP    WIND        PRES    WAVE
                       AIR SEA DIR/SP/G            HT/PER
                 (UTC) (F)     (DEG/KT/KT) (MB)    (FT/S)
PASCAGOULA       2300   85     150/  3/  5 1015.1
WAVELAND YACHT   2300   84     360/  8/ 11 1015.0
GRAND ISLE       2300   84 87  110/  3/  9 1016.3
SOUTHWEST PASS   2300   92 86   30/  7/  9 1016.0
NEW CANAL        2300   84 85  340/  4/  5 1016.2
SHELL BEACH      2300   83 83  350/  3/  5 1015.6

OFFSHORE STATIONS

STATION/POSITION TIME  TEMP    WIND        PRES    WAVE
                       AIR SEA DIR/SP/G            HT/PER
                 (UTC) (F)     (DEG/KT/KT) (MB)    (FT/S)

$$




USA.gov is the U.S. government's official web portal to all federal, state and local government web resources and services.